Погода в Аксарке

Россия / Ямало-Ненецкий автономный округ     66°33′28″N   67°48′17″E
темп.,
°C
ветер,
м/с
пор.,
м/с
влажн.,
%
обл.,
%
осадки,
мм/ч
давл.,
гПа
погр.,
м
17 мая, вт
вт1723:00+9зюз017311 0.1 99510
02:00+7юз348533 0.0 99444
05:00+6з3587100 0.0 994124
08:00+6ссз229487 0.0 994218
11:00+10сз237389 0.0 994871
14:00+11сз4463100 0.1 9951062
17:00+6св5691100 0.2 997326
20:00+6св338367 0.0 998287
18 мая, ср
ср1823:00+4з118917 0.0 99933
02:00+3з238668 0.0 100098
05:00+2з36806 0.0 1000233
08:00+5зсз34605 0.0 1001702
11:00+7зсз44456 0.0 10031322
14:00+9зсз44405 0.0 10041529
17:00+9зсз323940 0.0 10041536
20:00+8ссз324319 0.0 1005723
19 мая, чт
чт1923:00+5всв4772100 0.0 1006241
02:00+2всв59835 0.0 1006283
05:00+1всв61082100 0.0 1006368
08:00+4всв7967100 0.0 1006591
11:00+7всв895999 0.0 1005926
14:00+7всв8967100 0.0 1005928
17:00+4св81086100 0.0 1005593
20:00+3ссв71190100 0.0 1004562
20 мая, пт
пт2023:00+3ссв81285100 0.0 1004589
02:00+2ссв8138998 0.0 1003555
05:00+2ссв81481100 0.0 1002592
08:00+4ссв9146583 0.0 1002685
11:00+7ссв9115288 0.0 1002955
14:00+9ссв81046100 0.0 10011260
17:00+8ссв81045100 0.0 10021183
20:00+6ссв7105399 0.0 1003833
21 мая, сб
сб2123:00+3ссв6126691 0.0 1004403
02:000ссв612745 0.0 1004394
05:000ссв6127017 0.0 1005492
08:00+3ссв786048 0.0 1005691
11:00+6св5656100 0.0 10061122
14:00+6св6655100 0.0 10061276
17:00+6ссв6657100 0.0 10071031
20:00+5св6865100 0.0 1007799